TimeMDT,TemperatureF,Dew PointF,Humidity,Sea Level PressureIn,VisibilityMPH,Wind Direction,Wind SpeedMPH,Gust SpeedMPH,PrecipitationIn,Events,Conditions,WindDirDegrees,DateUTC
12:53 AM,15.1,8.1,74,29.94,10.0,ENE,3.5,-,N/A,,Clear,70,2013-03-22 06:53:00
1:53 AM,10.9,6.1,81,29.92,10.0,Calm,Calm,-,N/A,,Clear,0,2013-03-22 07:53:00
2:53 AM,12.0,7.0,80,29.91,10.0,North,8.1,-,N/A,,Clear,360,2013-03-22 08:53:00
3:53 AM,12.0,5.0,73,29.88,10.0,West,3.5,-,N/A,,Clear,260,2013-03-22 09:53:00
4:53 AM,8.1,3.0,80,29.90,10.0,Calm,Calm,-,N/A,,Clear,0,2013-03-22 10:53:00
5:53 AM,7.0,1.0,77,29.89,10.0,Calm,Calm,-,N/A,,Clear,0,2013-03-22 11:53:00
6:53 AM,10.0,6.1,84,29.89,10.0,ENE,5.8,-,N/A,,Overcast,70,2013-03-22 12:53:00
7:53 AM,8.1,3.9,83,29.93,10.0,NNE,6.9,-,N/A,,Clear,30,2013-03-22 13:53:00
8:53 AM,17.1,8.1,68,29.89,10.0,Calm,Calm,-,N/A,,Scattered Clouds,0,2013-03-22 14:53:00
9:53 AM,19.9,8.1,60,29.89,10.0,East,4.6,-,N/A,,Clear,90,2013-03-22 15:53:00
10:53 AM,23.0,5.0,46,29.87,10.0,Calm,Calm,-,N/A,,Scattered Clouds,0,2013-03-22 16:53:00
11:53 AM,23.0,3.0,42,29.88,10.0,Calm,Calm,-,N/A,,Overcast,0,2013-03-22 17:53:00
12:53 PM,25.0,-0.0,34,29.86,10.0,ESE,5.8,-,N/A,,Overcast,110,2013-03-22 18:53:00
1:53 PM,25.0,1.9,37,29.86,10.0,East,3.5,-,N/A,,Overcast,90,2013-03-22 19:53:00
2:53 PM,25.0,-0.9,33,29.84,10.0,NNE,8.1,-,N/A,,Overcast,20,2013-03-22 20:53:00
3:53 PM,21.0,8.1,57,29.88,6.0,West,5.8,-,0.00,Snow,Light Snow,260,2013-03-22 21:53:00
4:12 PM,21.2,10.4,63,29.77,2.0,WNW,10.4,-,0.00,Snow,Light Snow,290,2013-03-22 22:12:00
4:20 PM,19.4,10.4,68,29.77,1.2,WNW,4.6,-,0.00,Snow,Light Snow,290,2013-03-22 22:20:00
4:37 PM,19.4,10.4,68,29.78,0.8,Variable,3.5,-,0.00,Snow,Light Snow,0,2013-03-22 22:37:00
4:51 PM,17.6,12.2,79,29.78,0.5,West,5.8,-,0.00,Snow,Snow,270,2013-03-22 22:51:00
4:53 PM,18.0,14.0,84,29.94,0.5,West,4.6,-,0.00,Fog-Snow,Snow,280,2013-03-22 22:53:00
5:19 PM,19.4,15.8,86,29.78,1.2,Calm,Calm,-,0.00,Snow,Light Snow,0,2013-03-22 23:19:00
5:28 PM,19.4,15.8,86,29.78,3.0,SSW,3.5,-,0.00,Snow,Light Snow,200,2013-03-22 23:28:00
5:42 PM,19.4,14.0,80,29.78,10.0,Calm,Calm,-,0.00,,Overcast,0,2013-03-22 23:42:00
5:53 PM,19.9,15.1,81,29.93,10.0,SE,3.5,-,0.00,,Overcast,140,2013-03-22 23:53:00
6:53 PM,21.9,9.0,58,29.92,10.0,North,9.2,-,N/A,,Overcast,10,2013-03-23 00:53:00
7:53 PM,19.0,9.0,65,29.95,10.0,NNW,9.2,-,N/A,,Overcast,330,2013-03-23 01:53:00
8:53 PM,17.1,9.0,71,29.95,10.0,NW,6.9,-,N/A,,Overcast,310,2013-03-23 02:53:00
9:53 PM,16.0,8.1,71,29.95,10.0,NW,8.1,-,N/A,,Mostly Cloudy,320,2013-03-23 03:53:00
10:53 PM,16.0,7.0,68,29.94,10.0,NNE,11.5,-,N/A,,Scattered Clouds,20,2013-03-23 04:53:00
11:16 PM,17.6,10.4,73,29.86,1.5,NE,13.8,19.6,0.00,Snow,Light Snow,50,2013-03-23 05:16:00
11:18 PM,17.6,10.4,73,29.86,0.8,NE,15.0,19.6,0.00,Snow,Light Snow,40,2013-03-23 05:18:00
11:28 PM,15.8,12.2,86,29.86,0.2,NNE,11.5,-,0.00,Fog-Snow,Snow,30,2013-03-23 05:28:00
11:53 PM,16.0,12.9,88,29.95,0.8,NE,13.8,20.7,0.01,Snow,Light Snow,50,2013-03-23 05:53:00